Terminal Aerodrome Forecast
Issued by NWS Spokane, WA

Home | Current Version | Previous Version | Text Only | Print | Product List | Glossary On
Versions: 1 2 3 4 5 6 7 8 9 10 11 12 13 14 15 16 17 18 19 20 21 22 23 24 25 26 27 28
000
FTUS46 KOTX 180233 AAA
TAFEAT
TAF AMD
KEAT 180233Z 1803/1824 09004KT P6SM OVC009
     FM180800 VRB03KT P6SM SCT015 OVC100
     FM181200 33008KT P6SM SCT020 BKN100
     FM181600 31005KT 4SM BR OVC015
     FM182000 30005KT P6SM OVC025=

USA.gov is the U.S. government's official web portal to all federal, state and local government web resources and services.